Location: Newark
(44.5208°N, 2.4294°E)
Time: 03:29:07
(UTC+00:00)

Envisat - Pass Details

Date: 30 September 2019
Orbit: 764 x 766 km, 98.1° (Epoch: 17 October)

Event Time Altitude Azimuth Distance (km) Brightness Sun altitude
Rises 18:11:02 0° 175° (S) 3,218 6.1 -7.5°
Reaches altitude 10° 18:13:21 10° 179° (S) 2,296 5.4 -7.9°
Maximum altitude 18:18:21 61° 259° (W) 870 3.7 -8.8°
Drops below altitude 10° 18:23:24 10° 340° (NNW) 2,312 5.8 -9.7°
Sets 18:25:45 0° 344° (NNW) 3,243 6.6 -10.1°
